Tabellarische Ansicht des 24.6.2012


Die einzelnen Werte des Tages

Uhrzeit Temperatur Luftdruck Luftfeuchte Wind Hi-Wind Taupunkt THW Index Wind Chill Heat Index Solar- strahlung Regen

00:00

13.1 C

1018.4 hpa

85 %

0.0 km/h aus 110

3.2 km/h aus WSW

10.6 C

13.1 C

13.1 C

13.1 C

0 W/m

0.00 mm

00:05

13.1 C

1018.4 hpa

85 %

0.0 km/h aus 106

1.6 km/h aus WSW

10.6 C

13.1 C

13.1 C

13.1 C

0 W/m

0.00 mm

00:10

13.1 C

1018.4 hpa

85 %

1.6 km/h aus 114

3.2 km/h aus WSW

10.6 C

13.1 C

13.1 C

13.1 C

0 W/m

0.00 mm

00:15

13.1 C

1018.3 hpa

85 %

0.0 km/h aus 110

0.0 km/h aus ---

10.6 C

13.1 C

13.1 C

13.1 C

0 W/m

0.00 mm

00:20

13.1 C

1018.3 hpa

85 %

1.6 km/h aus 112

3.2 km/h aus WSW

10.6 C

13.0 C

13.1 C

13.0 C

0 W/m

0.00 mm

00:25

12.9 C

1018.3 hpa

85 %

0.0 km/h aus 103

3.2 km/h aus WSW

10.5 C

12.9 C

12.9 C

12.9 C

0 W/m

0.00 mm

00:30

12.9 C

1018.2 hpa

85 %

1.6 km/h aus 112

3.2 km/h aus WSW

10.4 C

12.8 C

12.9 C

12.8 C

0 W/m

0.00 mm

00:35

12.9 C

1018.2 hpa

86 %

1.6 km/h aus 110

3.2 km/h aus WSW

10.6 C

12.8 C

12.9 C

12.8 C

0 W/m

0.00 mm

00:40

12.9 C

1018.2 hpa

85 %

1.6 km/h aus 111

3.2 km/h aus WSW

10.4 C

12.8 C

12.9 C

12.8 C

0 W/m

0.00 mm

00:45

12.9 C

1018.1 hpa

85 %

0.0 km/h aus 109

3.2 km/h aus WSW

10.4 C

12.8 C

12.9 C

12.8 C

0 W/m

0.00 mm

00:50

12.9 C

1018.1 hpa

85 %

0.0 km/h aus 108

3.2 km/h aus WSW

10.4 C

12.8 C

12.9 C

12.8 C

0 W/m

0.00 mm

00:55

12.8 C

1018.1 hpa

85 %

0.0 km/h aus 104

3.2 km/h aus WSW

10.4 C

12.8 C

12.8 C

12.8 C

0 W/m

0.00 mm

01:00

12.8 C

1018.1 hpa

85 %

0.0 km/h aus 108

3.2 km/h aus WSW

10.3 C

12.7 C

12.8 C

12.7 C

0 W/m

0.00 mm

01:05

12.7 C

1018.1 hpa

85 %

0.0 km/h aus 109

3.2 km/h aus WSW

10.3 C

12.7 C

12.7 C

12.7 C

0 W/m

0.00 mm

01:10

12.8 C

1018.1 hpa

85 %

0.0 km/h aus 103

1.6 km/h aus WSW

10.3 C

12.7 C

12.8 C

12.7 C

0 W/m

0.00 mm

01:15

12.7 C

1018.0 hpa

85 %

0.0 km/h aus 115

3.2 km/h aus WSW

10.3 C

12.7 C

12.7 C

12.7 C

0 W/m

0.00 mm

01:20

12.7 C

1018.0 hpa

85 %

1.6 km/h aus 107

3.2 km/h aus WSW

10.2 C

12.6 C

12.7 C

12.6 C

0 W/m

0.00 mm

01:25

12.6 C

1018.0 hpa

86 %

1.6 km/h aus 108

3.2 km/h aus WSW

10.3 C

12.6 C

12.6 C

12.6 C

0 W/m

0.00 mm

01:30

12.6 C

1018.0 hpa

86 %

0.0 km/h aus 115

3.2 km/h aus WSW

10.3 C

12.6 C

12.6 C

12.6 C

0 W/m

0.00 mm

01:35

12.6 C

1018.0 hpa

86 %

1.6 km/h aus 111

3.2 km/h aus WSW

10.3 C

12.5 C

12.6 C

12.5 C

0 W/m

0.00 mm

01:40

12.5 C

1018.0 hpa

86 %

1.6 km/h aus 111

3.2 km/h aus WSW

10.2 C

12.4 C

12.5 C

12.4 C

0 W/m

0.00 mm

01:45

12.5 C

1017.8 hpa

86 %

0.0 km/h aus 111

1.6 km/h aus WSW

10.2 C

12.4 C

12.5 C

12.4 C

0 W/m

0.00 mm

01:50

12.7 C

1017.8 hpa

86 %

0.0 km/h aus 108

1.6 km/h aus WSW

10.4 C

12.7 C

12.7 C

12.7 C

0 W/m

0.00 mm

01:55

12.7 C

1017.8 hpa

85 %

0.0 km/h aus 108

3.2 km/h aus WSW

10.2 C

12.6 C

12.7 C

12.6 C

0 W/m

0.00 mm

02:00

12.7 C

1017.7 hpa

85 %

0.0 km/h aus 108

3.2 km/h aus WSW

10.2 C

12.6 C

12.7 C

12.6 C

0 W/m

0.00 mm

02:05

12.7 C

1017.7 hpa

85 %

0.0 km/h aus 102

3.2 km/h aus WSW

10.2 C

12.6 C

12.7 C

12.6 C

0 W/m

0.00 mm

02:10

12.6 C

1017.7 hpa

86 %

0.0 km/h aus 110

3.2 km/h aus WSW

10.3 C

12.5 C

12.6 C

12.5 C

0 W/m

0.00 mm

02:15

12.6 C

1017.5 hpa

86 %

0.0 km/h aus 110

1.6 km/h aus WSW

10.3 C

12.5 C

12.6 C

12.5 C

0 W/m

0.00 mm

02:20

12.5 C

1017.5 hpa

86 %

1.6 km/h aus 113

3.2 km/h aus WSW

10.2 C

12.4 C

12.5 C

12.4 C

0 W/m

0.00 mm

02:25

12.6 C

1017.5 hpa

86 %

1.6 km/h aus 109

3.2 km/h aus WSW

10.3 C

12.5 C

12.6 C

12.5 C

0 W/m

0.00 mm

02:30

12.5 C

1017.4 hpa

86 %

1.6 km/h aus 114

3.2 km/h aus WSW

10.2 C

12.4 C

12.5 C

12.4 C

0 W/m

0.00 mm

02:35

12.6 C

1017.4 hpa

86 %

1.6 km/h aus 111

4.8 km/h aus WSW

10.3 C

12.5 C

12.6 C

12.5 C

0 W/m

0.00 mm

02:40

12.6 C

1017.4 hpa

85 %

1.6 km/h aus 109

4.8 km/h aus WSW

10.2 C

12.6 C

12.6 C

12.6 C

0 W/m

0.00 mm

02:45

12.7 C

1017.4 hpa

85 %

1.6 km/h aus 110

4.8 km/h aus WSW

10.3 C

12.7 C

12.7 C

12.7 C

0 W/m

0.00 mm

02:50

12.7 C

1017.4 hpa

85 %

1.6 km/h aus 104

4.8 km/h aus WSW

10.3 C

12.7 C

12.7 C

12.7 C

0 W/m

0.00 mm

02:55

12.7 C

1017.4 hpa

85 %

0.0 km/h aus 107

3.2 km/h aus WSW

10.3 C

12.7 C

12.7 C

12.7 C

0 W/m

0.00 mm

03:00

12.8 C

1017.1 hpa

85 %

0.0 km/h aus 109

1.6 km/h aus WSW

10.3 C

12.7 C

12.8 C

12.7 C

0 W/m

0.00 mm

03:05

12.7 C

1017.1 hpa

85 %

0.0 km/h aus 107

3.2 km/h aus WSW

10.3 C

12.7 C

12.7 C

12.7 C

0 W/m

0.00 mm

03:10

12.6 C

1017.1 hpa

86 %

1.6 km/h aus 103

4.8 km/h aus WSW

10.3 C

12.6 C

12.6 C

12.6 C

0 W/m

0.00 mm

03:15

12.6 C

1016.9 hpa

86 %

1.6 km/h aus 109

4.8 km/h aus WSW

10.3 C

12.6 C

12.6 C

12.6 C

0 W/m

0.00 mm

03:20

12.6 C

1016.9 hpa

87 %

1.6 km/h aus 109

4.8 km/h aus WSW

10.4 C

12.6 C

12.6 C

12.6 C

0 W/m

0.00 mm

03:25

12.6 C

1016.9 hpa

87 %

1.6 km/h aus 104

4.8 km/h aus WSW

10.5 C

12.6 C

12.6 C

12.6 C

0 W/m

0.00 mm

03:30

12.7 C

1016.6 hpa

87 %

1.6 km/h aus 107

4.8 km/h aus WSW

10.6 C

12.7 C

12.7 C

12.7 C

0 W/m

0.00 mm

03:35

12.7 C

1016.6 hpa

86 %

1.6 km/h aus 107

4.8 km/h aus WSW

10.4 C

12.6 C

12.7 C

12.6 C

0 W/m

0.00 mm

03:40

12.8 C

1016.6 hpa

86 %

1.6 km/h aus 103

4.8 km/h aus WSW

10.5 C

12.7 C

12.8 C

12.7 C

0 W/m

0.00 mm

03:45

12.8 C

1016.5 hpa

86 %

1.6 km/h aus 112

3.2 km/h aus WSW

10.5 C

12.8 C

12.8 C

12.8 C

0 W/m

0.00 mm

03:50

12.8 C

1016.5 hpa

86 %

1.6 km/h aus 111

3.2 km/h aus WSW

10.5 C

12.8 C

12.8 C

12.8 C

0 W/m

0.00 mm

03:55

12.9 C

1016.5 hpa

86 %

1.6 km/h aus 111

3.2 km/h aus WSW

10.6 C

12.8 C

12.9 C

12.8 C

0 W/m

0.00 mm

04:00

12.9 C

1016.4 hpa

86 %

1.6 km/h aus 114

3.2 km/h aus WSW

10.7 C

12.9 C

12.9 C

12.9 C

0 W/m

0.00 mm

04:05

13.0 C

1016.4 hpa

85 %

0.0 km/h aus 110

1.6 km/h aus WSW

10.5 C

12.9 C

13.0 C

12.9 C

0 W/m

0.00 mm

04:10

13.1 C

1016.4 hpa

85 %

0.0 km/h aus 102

3.2 km/h aus WSW

10.6 C

13.0 C

13.1 C

13.0 C

0 W/m

0.00 mm

04:15

13.1 C

1016.4 hpa

85 %

0.0 km/h aus 109

1.6 km/h aus WSW

10.6 C

13.0 C

13.1 C

13.0 C

0 W/m

0.00 mm

04:20

13.0 C

1016.4 hpa

85 %

0.0 km/h aus 110

3.2 km/h aus WSW

10.5 C

12.9 C

13.0 C

12.9 C

0 W/m

0.00 mm

04:25

13.0 C

1016.4 hpa

85 %

1.6 km/h aus 111

4.8 km/h aus WSW

10.5 C

12.9 C

13.0 C

12.9 C

0 W/m

0.00 mm

04:30

13.0 C

1016.1 hpa

85 %

1.6 km/h aus 108

4.8 km/h aus WSW

10.5 C

12.9 C

13.0 C

12.9 C

0 W/m

0.00 mm

04:35

13.1 C

1016.1 hpa

86 %

1.6 km/h aus 107

4.8 km/h aus WSW

10.8 C

13.0 C

13.1 C

13.0 C

0 W/m

0.00 mm

04:40

12.9 C

1016.1 hpa

86 %

1.6 km/h aus 104

4.8 km/h aus WSW

10.7 C

12.9 C

12.9 C

12.9 C

0 W/m

0.00 mm

04:45

12.9 C

1015.9 hpa

87 %

1.6 km/h aus 107

4.8 km/h aus WSW

10.8 C

12.9 C

12.9 C

12.9 C

0 W/m

0.00 mm

04:50

12.9 C

1015.9 hpa

87 %

1.6 km/h aus 107

4.8 km/h aus WSW

10.8 C

12.9 C

12.9 C

12.9 C

0 W/m

0.00 mm

04:55

12.9 C

1015.9 hpa

86 %

1.6 km/h aus 108

4.8 km/h aus WSW

10.6 C

12.8 C

12.9 C

12.8 C

0 W/m

0.00 mm

05:00

12.9 C

1015.8 hpa

86 %

1.6 km/h aus 108

3.2 km/h aus WSW

10.7 C

12.9 C

12.9 C

12.9 C

0 W/m

0.00 mm

05:05

13.0 C

1015.8 hpa

86 %

1.6 km/h aus 106

3.2 km/h aus WSW

10.7 C

12.9 C

13.0 C

12.9 C

0 W/m

0.00 mm

05:10

12.9 C

1015.8 hpa

86 %

1.6 km/h aus 104

3.2 km/h aus WSW

10.7 C

12.9 C

12.9 C

12.9 C

0 W/m

0.00 mm

05:15

13.1 C

1015.7 hpa

85 %

1.6 km/h aus 105

4.8 km/h aus WSW

10.6 C

13.0 C

13.1 C

13.0 C

0 W/m

0.00 mm

05:20

13.2 C

1015.7 hpa

85 %

6.4 km/h aus 107

9.7 km/h aus SW

10.7 C

12.9 C

13.0 C

13.1 C

0 W/m

0.00 mm

05:25

13.2 C

1015.7 hpa

85 %

6.4 km/h aus 110

11.3 km/h aus S

10.7 C

12.9 C

13.0 C

13.1 C

0 W/m

0.00 mm

05:30

13.2 C

1015.4 hpa

85 %

4.8 km/h aus 102

6.4 km/h aus S

10.8 C

13.2 C

13.2 C

13.2 C

0 W/m

0.00 mm

05:35

13.3 C

1015.4 hpa

84 %

4.8 km/h aus 107

9.7 km/h aus S

10.6 C

13.2 C

13.3 C

13.2 C

0 W/m

0.00 mm

05:40

13.4 C

1015.4 hpa

84 %

6.4 km/h aus 107

9.7 km/h aus S

10.7 C

13.2 C

13.3 C

13.3 C

0 W/m

0.00 mm

05:45

13.4 C

1015.3 hpa

84 %

8.0 km/h aus 109

14.5 km/h aus SSE

10.8 C

13.0 C

13.1 C

13.4 C

0 W/m

0.00 mm

05:50

13.6 C

1015.3 hpa

83 %

8.0 km/h aus 114

12.9 km/h aus SSE

10.7 C

13.1 C

13.2 C

13.4 C

0 W/m

0.00 mm

05:55

13.7 C

1015.3 hpa

83 %

6.4 km/h aus 100

11.3 km/h aus SSE

10.9 C

13.6 C

13.7 C

13.6 C

0 W/m

0.00 mm

06:00

13.8 C

1015.2 hpa

83 %

6.4 km/h aus 101

11.3 km/h aus SSE

11.0 C

13.7 C

13.8 C

13.7 C

0 W/m

0.00 mm

06:05

14.0 C

1015.2 hpa

82 %

8.0 km/h aus 109

14.5 km/h aus SSE

11.0 C

13.6 C

13.7 C

13.9 C

0 W/m

0.00 mm

06:10

14.1 C

1015.2 hpa

81 %

6.4 km/h aus 105

9.7 km/h aus SSE

10.9 C

14.0 C

14.1 C

14.0 C

0 W/m

0.00 mm

06:15

14.1 C

1014.8 hpa

81 %

8.0 km/h aus 107

14.5 km/h aus SSE

10.9 C

13.7 C

13.8 C

14.0 C

0 W/m

0.00 mm

06:20

14.2 C

1014.8 hpa

81 %

8.0 km/h aus 108

11.3 km/h aus SSE

11.0 C

13.8 C

13.9 C

14.1 C

0 W/m

0.00 mm

06:25

14.2 C

1014.8 hpa

81 %

8.0 km/h aus 111

11.3 km/h aus SSE

11.0 C

13.8 C

13.9 C

14.1 C

0 W/m

0.00 mm

06:30

14.3 C

1014.7 hpa

80 %

6.4 km/h aus 100

9.7 km/h aus SSE

10.9 C

14.2 C

14.3 C

14.2 C

0 W/m

0.00 mm

06:35

14.4 C

1014.7 hpa

80 %

6.4 km/h aus 101

11.3 km/h aus SSE

11.0 C

14.3 C

14.4 C

14.3 C

0 W/m

0.00 mm

06:40

14.5 C

1014.7 hpa

80 %

9.7 km/h aus 108

14.5 km/h aus SSE

11.1 C

13.9 C

14.1 C

14.4 C

0 W/m

0.00 mm

06:45

14.6 C

1014.4 hpa

79 %

8.0 km/h aus 103

11.3 km/h aus SSE

11.0 C

14.2 C

14.3 C

14.4 C

0 W/m

0.00 mm

06:50

14.7 C

1014.4 hpa

79 %

8.0 km/h aus 107

14.5 km/h aus SSE

11.1 C

14.3 C

14.5 C

14.5 C

0 W/m

0.00 mm

06:55

14.8 C

1014.4 hpa

79 %

8.0 km/h aus 111

14.5 km/h aus SSE

11.2 C

14.4 C

14.6 C

14.6 C

0 W/m

0.00 mm

07:00

14.9 C

1013.8 hpa

78 %

8.0 km/h aus 105

11.3 km/h aus SSE

11.1 C

14.6 C

14.8 C

14.7 C

0 W/m

0.00 mm

07:05

15.0 C

1013.8 hpa

79 %

8.0 km/h aus 110

14.5 km/h aus SE

11.4 C

14.7 C

14.9 C

14.8 C

0 W/m

0.00 mm

07:10

15.0 C

1013.8 hpa

78 %

8.0 km/h aus 105

16.1 km/h aus SE

11.2 C

14.7 C

14.9 C

14.8 C

0 W/m

0.00 mm

07:15

15.0 C

1013.7 hpa

78 %

9.7 km/h aus 104

16.1 km/h aus SE

11.2 C

14.5 C

14.7 C

14.8 C

0 W/m

0.00 mm

07:20

15.2 C

1013.7 hpa

78 %

9.7 km/h aus 106

16.1 km/h aus SSE

11.4 C

14.7 C

14.9 C

15.0 C

0 W/m

0.00 mm

07:25

15.3 C

1013.7 hpa

77 %

9.7 km/h aus 111

16.1 km/h aus SSE

11.3 C

14.8 C

15.0 C

15.1 C

0 W/m

0.00 mm

07:30

15.6 C

1013.5 hpa

76 %

9.7 km/h aus 104

16.1 km/h aus SSE

11.3 C

15.2 C

15.3 C

15.4 C

0 W/m

0.00 mm

07:35

15.6 C

1013.5 hpa

76 %

9.7 km/h aus 112

14.5 km/h aus SSE

11.3 C

15.2 C

15.3 C

15.4 C

0 W/m

0.00 mm

07:40

15.6 C

1013.5 hpa

76 %

9.7 km/h aus 107

16.1 km/h aus SSE

11.3 C

15.2 C

15.3 C

15.4 C

0 W/m

0.00 mm

07:45

15.6 C

1013.2 hpa

76 %

8.0 km/h aus 109

12.9 km/h aus SSE

11.3 C

15.4 C

15.6 C

15.4 C

0 W/m

0.00 mm

07:50

15.5 C

1013.2 hpa

77 %

8.0 km/h aus 111

11.3 km/h aus SSE

11.5 C

15.3 C

15.5 C

15.3 C

0 W/m

0.00 mm

07:55

15.5 C

1013.2 hpa

77 %

6.4 km/h aus 114

9.7 km/h aus SSE

11.5 C

15.3 C

15.5 C

15.3 C

0 W/m

0.00 mm

08:00

15.6 C

1013.1 hpa

78 %

4.8 km/h aus 114

9.7 km/h aus SSE

11.7 C

15.4 C

15.6 C

15.4 C

0 W/m

0.00 mm

08:05

15.7 C

1013.1 hpa

78 %

4.8 km/h aus 110

8.0 km/h aus SSE

11.8 C

15.6 C

15.7 C

15.6 C

0 W/m

0.00 mm

08:10

15.8 C

1013.1 hpa

78 %

4.8 km/h aus 112

9.7 km/h aus SSE

11.9 C

15.7 C

15.8 C

15.7 C

0 W/m

0.00 mm

08:15

15.9 C

1012.8 hpa

77 %

6.4 km/h aus 111

9.7 km/h aus SSE

11.9 C

15.8 C

15.9 C

15.8 C

0 W/m

0.00 mm

08:20

16.3 C

1012.8 hpa

77 %

6.4 km/h aus 107

9.7 km/h aus SSE

12.3 C

16.3 C

16.3 C

16.3 C

0 W/m

0.00 mm

08:25

16.8 C

1012.8 hpa

73 %

9.7 km/h aus 113

16.1 km/h aus SSE

11.9 C

16.6 C

16.8 C

16.6 C

0 W/m

0.00 mm

08:30

16.9 C

1012.4 hpa

72 %

12.9 km/h aus 109

17.7 km/h aus SSE

11.8 C

16.2 C

16.3 C

16.7 C

0 W/m

0.00 mm

08:35

16.9 C

1012.4 hpa

72 %

11.3 km/h aus 106

17.7 km/h aus SSE

11.8 C

16.6 C

16.8 C

16.7 C

0 W/m

0.00 mm

08:40

16.9 C

1012.4 hpa

72 %

11.3 km/h aus 112

16.1 km/h aus S

11.9 C

16.7 C

16.8 C

16.8 C

0 W/m

0.00 mm

08:45

17.1 C

1012.3 hpa

72 %

11.3 km/h aus 108

19.3 km/h aus SSE

12.0 C

16.9 C

17.1 C

16.9 C

0 W/m

0.00 mm

08:50

17.3 C

1012.3 hpa

73 %

9.7 km/h aus 108

16.1 km/h aus SSE

12.4 C

17.2 C

17.3 C

17.2 C

0 W/m

0.00 mm

08:55

17.4 C

1012.3 hpa

71 %

11.3 km/h aus 111

17.7 km/h aus SSE

12.1 C

17.2 C

17.3 C

17.3 C

0 W/m

0.00 mm

09:00

17.6 C

1012.1 hpa

71 %

8.0 km/h aus 111

14.5 km/h aus SSE

12.2 C

17.4 C

17.6 C

17.4 C

0 W/m

0.00 mm

09:05

17.6 C

1012.1 hpa

71 %

8.0 km/h aus 110

14.5 km/h aus SSE

12.3 C

17.5 C

17.6 C

17.5 C

0 W/m

0.00 mm

09:10

17.7 C

1012.1 hpa

71 %

6.4 km/h aus 110

12.9 km/h aus SSE

12.4 C

17.6 C

17.7 C

17.6 C

0 W/m

0.00 mm

09:15

17.8 C

1011.7 hpa

71 %

9.7 km/h aus 114

14.5 km/h aus SSE

12.4 C

17.7 C

17.8 C

17.7 C

0 W/m

0.00 mm

09:20

17.8 C

1011.7 hpa

70 %

8.0 km/h aus 108

17.7 km/h aus SSE

12.3 C

17.7 C

17.8 C

17.7 C

0 W/m

0.00 mm

09:25

18.1 C

1011.7 hpa

70 %

11.3 km/h aus 113

22.5 km/h aus SSW

12.6 C

18.1 C

18.1 C

18.1 C

0 W/m

0.00 mm

09:30

18.3 C

1011.3 hpa

69 %

11.3 km/h aus 115

20.9 km/h aus SSE

12.5 C

18.3 C

18.3 C

18.3 C

0 W/m

0.00 mm

09:35

18.3 C

1011.3 hpa

68 %

12.9 km/h aus 111

19.3 km/h aus SSE

12.3 C

17.9 C

17.9 C

18.2 C

0 W/m

0.00 mm

09:40

18.0 C

1011.3 hpa

69 %

12.9 km/h aus 104

22.5 km/h aus S

12.2 C

17.5 C

17.6 C

17.9 C

0 W/m

0.00 mm

09:45

17.9 C

1011.2 hpa

70 %

11.3 km/h aus 111

17.7 km/h aus S

12.3 C

17.8 C

17.9 C

17.8 C

0 W/m

0.00 mm

09:50

17.8 C

1011.2 hpa

70 %

12.9 km/h aus 114

22.5 km/h aus SSE

12.3 C

17.3 C

17.4 C

17.7 C

0 W/m

0.00 mm

09:55

17.8 C

1011.2 hpa

69 %

14.5 km/h aus 113

20.9 km/h aus SSE

12.1 C

16.8 C

16.9 C

17.7 C

0 W/m

0.00 mm

10:00

18.0 C

1010.6 hpa

71 %

12.9 km/h aus 109

22.5 km/h aus SSE

12.7 C

17.6 C

17.6 C

17.9 C

0 W/m

0.00 mm

10:05

17.9 C

1010.6 hpa

72 %

11.3 km/h aus 113

19.3 km/h aus S

12.8 C

17.9 C

17.9 C

17.9 C

0 W/m

0.00 mm

10:10

17.9 C

1010.6 hpa

71 %

17.7 km/h aus 111

29.0 km/h aus SE

12.6 C

16.2 C

16.3 C

17.9 C

0 W/m

0.00 mm

10:15

18.0 C

1010.3 hpa

72 %

14.5 km/h aus 112

22.5 km/h aus S

12.9 C

17.2 C

17.2 C

18.0 C

0 W/m

0.00 mm

10:20

18.0 C

1010.3 hpa

71 %

16.1 km/h aus 105

27.4 km/h aus SSE

12.7 C

16.7 C

16.7 C

17.9 C

0 W/m

0.00 mm

10:25

18.1 C

1010.3 hpa

72 %

11.3 km/h aus 107

19.3 km/h aus S

12.9 C

18.1 C

18.1 C

18.1 C

0 W/m

0.00 mm

10:30

17.8 C

1010.1 hpa

70 %

17.7 km/h aus 106

37.0 km/h aus S

12.2 C

15.9 C

16.1 C

17.7 C

0 W/m

0.00 mm

10:35

17.8 C

1010.1 hpa

71 %

16.1 km/h aus 114

24.1 km/h aus SSW

12.5 C

16.4 C

16.5 C

17.8 C

0 W/m

0.00 mm

10:40

18.0 C

1010.1 hpa

69 %

16.1 km/h aus 111

25.7 km/h aus S

12.2 C

16.6 C

16.7 C

17.9 C

0 W/m

0.00 mm

10:45

18.3 C

1009.7 hpa

68 %

14.5 km/h aus 104

29.0 km/h aus SSE

12.3 C

17.5 C

17.6 C

18.3 C

0 W/m

0.00 mm

10:50

18.4 C

1009.7 hpa

68 %

17.7 km/h aus 115

27.4 km/h aus S

12.4 C

16.8 C

16.8 C

18.4 C

0 W/m

0.00 mm

10:55

18.6 C

1009.7 hpa

69 %

17.7 km/h aus 108

29.0 km/h aus S

12.8 C

17.0 C

17.0 C

18.6 C

0 W/m

0.00 mm

11:00

18.4 C

1009.6 hpa

67 %

20.9 km/h aus 107

41.8 km/h aus S

12.2 C

16.1 C

16.2 C

18.3 C

0 W/m

0.00 mm

11:05

18.1 C

1009.6 hpa

69 %

24.1 km/h aus 109

40.2 km/h aus S

12.3 C

15.3 C

15.4 C

17.9 C

0 W/m

0.00 mm

11:10

17.8 C

1009.6 hpa

70 %

19.3 km/h aus 108

37.0 km/h aus S

12.3 C

15.7 C

15.8 C

17.7 C

0 W/m

0.00 mm

11:15

17.8 C

1009.3 hpa

69 %

24.1 km/h aus 111

40.2 km/h aus S

12.1 C

15.0 C

15.1 C

17.7 C

0 W/m

0.00 mm

11:20

17.8 C

1009.3 hpa

70 %

16.1 km/h aus 108

30.6 km/h aus SSW

12.3 C

16.4 C

16.5 C

17.7 C

0 W/m

0.00 mm

11:25

17.7 C

1009.3 hpa

71 %

20.9 km/h aus 110

30.6 km/h aus S

12.4 C

15.3 C

15.4 C

17.6 C

0 W/m

0.00 mm

11:30

17.8 C

1009.1 hpa

70 %

19.3 km/h aus 106

32.2 km/h aus S

12.3 C

15.7 C

15.8 C

17.7 C

0 W/m

0.00 mm

11:35

18.2 C

1009.1 hpa

71 %

20.9 km/h aus 110

40.2 km/h aus S

12.9 C

16.0 C

16.0 C

18.2 C

0 W/m

0.00 mm

11:40

18.7 C

1009.1 hpa

66 %

20.9 km/h aus 105

32.2 km/h aus S

12.2 C

16.4 C

16.5 C

18.6 C

0 W/m

0.00 mm

11:45

18.9 C

1008.7 hpa

66 %

25.7 km/h aus 111

38.6 km/h aus S

12.4 C

16.1 C

16.1 C

18.8 C

0 W/m

0.00 mm

11:50

19.2 C

1008.7 hpa

63 %

24.1 km/h aus 114

37.0 km/h aus S

12.0 C

16.6 C

16.7 C

19.1 C

0 W/m

0.00 mm

11:55

19.6 C

1008.7 hpa

63 %

25.7 km/h aus 109

43.5 km/h aus SSE

12.3 C

16.8 C

16.9 C

19.4 C

0 W/m

0.00 mm

12:00

19.6 C

1008.4 hpa

61 %

25.7 km/h aus 108

43.5 km/h aus S

11.8 C

16.7 C

16.9 C

19.3 C

0 W/m

0.00 mm

12:05

19.6 C

1008.4 hpa

61 %

24.1 km/h aus 109

40.2 km/h aus S

11.9 C

16.9 C

17.1 C

19.4 C

0 W/m

0.00 mm

12:10

19.7 C

1008.4 hpa

59 %

29.0 km/h aus 108

43.5 km/h aus S

11.5 C

16.5 C

16.8 C

19.4 C

0 W/m

0.00 mm

12:15

20.0 C

1008.1 hpa

60 %

29.0 km/h aus 106

45.1 km/h aus SSE

12.0 C

16.9 C

17.1 C

19.8 C

0 W/m

0.00 mm

12:20

20.0 C

1008.1 hpa

60 %

27.4 km/h aus 111

53.1 km/h aus S

12.0 C

17.1 C

17.2 C

19.8 C

0 W/m

0.00 mm

12:25

19.5 C

1008.1 hpa

61 %

16.1 km/h aus 106

30.6 km/h aus S

11.8 C

18.2 C

18.4 C

19.3 C

0 W/m

0.00 mm

12:30

18.8 C

1007.6 hpa

65 %

19.3 km/h aus 108

37.0 km/h aus SSW

12.1 C

16.8 C

16.9 C

18.7 C

0 W/m

0.00 mm

12:35

18.2 C

1007.6 hpa

70 %

25.7 km/h aus 111

40.2 km/h aus S

12.6 C

15.3 C

15.3 C

18.1 C

0 W/m

0.00 mm

12:40

18.2 C

1007.6 hpa

67 %

22.5 km/h aus 109

33.8 km/h aus S

11.9 C

15.6 C

15.7 C

18.1 C

0 W/m

0.00 mm

12:45

18.4 C

1007.4 hpa

66 %

19.3 km/h aus 110

27.4 km/h aus S

12.0 C

16.4 C

16.5 C

18.3 C

0 W/m

0.00 mm

12:50

18.7 C

1007.4 hpa

64 %

17.7 km/h aus 113

32.2 km/h aus SSW

11.7 C

16.9 C

17.1 C

18.5 C

0 W/m

0.00 mm

12:55

18.8 C

1007.4 hpa

63 %

19.3 km/h aus 108

35.4 km/h aus SSW

11.6 C

16.7 C

16.9 C

18.6 C

0 W/m

0.00 mm

13:00

18.9 C

1007.0 hpa

62 %

17.7 km/h aus 108

29.0 km/h aus SSW

11.5 C

17.2 C

17.4 C

18.7 C

0 W/m

0.00 mm

13:05

19.1 C

1007.0 hpa

65 %

19.3 km/h aus 110

32.2 km/h aus S

12.3 C

17.2 C

17.2 C

19.0 C

0 W/m

0.00 mm

13:10

19.1 C

1007.0 hpa

63 %

25.7 km/h aus 110

43.5 km/h aus SSE

11.8 C

16.2 C

16.3 C

18.9 C

0 W/m

0.00 mm

13:15

18.9 C

1007.0 hpa

63 %

20.9 km/h aus 112

40.2 km/h aus SSW

11.7 C

16.6 C

16.8 C

18.7 C

0 W/m

0.00 mm

13:20

18.8 C

1007.0 hpa

62 %

24.1 km/h aus 109

46.7 km/h aus SSW

11.3 C

15.9 C

16.2 C

18.5 C

0 W/m

0.00 mm

13:25

18.6 C

1007.0 hpa

66 %

24.1 km/h aus 109

41.8 km/h aus SSE

12.1 C

15.9 C

16.0 C

18.5 C

0 W/m

0.00 mm

13:30

18.7 C

1006.5 hpa

68 %

22.5 km/h aus 113

33.8 km/h aus S

12.7 C

16.3 C

16.3 C

18.7 C

0 W/m

0.00 mm

13:35

18.9 C

1006.5 hpa

69 %

22.5 km/h aus 110

43.5 km/h aus S

13.1 C

16.6 C

16.6 C

19.0 C

0 W/m

0.00 mm

13:40

18.6 C

1006.5 hpa

71 %

22.5 km/h aus 114

37.0 km/h aus S

13.2 C

16.3 C

16.2 C

18.7 C

0 W/m

0.00 mm

13:45

18.1 C

1006.5 hpa

69 %

19.3 km/h aus 108

32.2 km/h aus S

12.3 C

16.1 C

16.1 C

18.1 C

0 W/m

0.00 mm

13:50

17.9 C

1006.5 hpa

70 %

22.5 km/h aus 112

35.4 km/h aus S

12.3 C

15.2 C

15.3 C

17.8 C

0 W/m

0.00 mm

13:55

17.7 C

1006.5 hpa

71 %

20.9 km/h aus 112

43.5 km/h aus SSE

12.3 C

15.2 C

15.3 C

17.6 C

0 W/m

0.00 mm

14:00

17.4 C

1006.5 hpa

72 %

17.7 km/h aus 114

29.0 km/h aus SSW

12.3 C

15.5 C

15.6 C

17.3 C

0 W/m

0.00 mm

14:05

17.2 C

1006.5 hpa

72 %

22.5 km/h aus 110

33.8 km/h aus S

12.1 C

14.4 C

14.6 C

17.1 C

0 W/m

0.00 mm

14:10

17.0 C

1006.5 hpa

74 %

22.5 km/h aus 109

33.8 km/h aus SSE

12.3 C

14.3 C

14.4 C

16.9 C

0 W/m

0.00 mm

14:15

16.8 C

1006.2 hpa

76 %

17.7 km/h aus 109

29.0 km/h aus S

12.5 C

14.8 C

14.9 C

16.7 C

0 W/m

0.00 mm

14:20

16.7 C

1006.2 hpa

78 %

16.1 km/h aus 106

24.1 km/h aus S

12.8 C

15.2 C

15.2 C

16.7 C

0 W/m

0.00 mm

14:25

16.8 C

1006.2 hpa

78 %

14.5 km/h aus 110

24.1 km/h aus S

12.9 C

15.7 C

15.7 C

16.8 C

0 W/m

0.00 mm

14:30

16.9 C

1005.9 hpa

78 %

16.1 km/h aus 105

30.6 km/h aus SSE

13.0 C

15.5 C

15.4 C

16.9 C

0 W/m

0.25 mm

14:35

16.7 C

1005.9 hpa

78 %

24.1 km/h aus 111

37.0 km/h aus S

12.9 C

13.8 C

13.8 C

16.7 C

0 W/m

0.00 mm

14:40

16.6 C

1005.9 hpa

78 %

19.3 km/h aus 110

30.6 km/h aus SSW

12.7 C

14.3 C

14.3 C

16.6 C

0 W/m

0.00 mm

14:45

16.4 C

1005.6 hpa

80 %

11.3 km/h aus 106

19.3 km/h aus S

13.0 C

16.3 C

16.2 C

16.5 C

0 W/m

0.00 mm

14:50

16.2 C

1005.6 hpa

80 %

14.5 km/h aus 106

30.6 km/h aus SSW

12.8 C

15.1 C

15.1 C

16.2 C

0 W/m

0.00 mm

14:55

16.1 C

1005.6 hpa

81 %

14.5 km/h aus 112

20.9 km/h aus SSW

12.8 C

14.9 C

14.9 C

16.1 C

0 W/m

0.00 mm

15:00

15.9 C

1005.5 hpa

83 %

11.3 km/h aus 109

22.5 km/h aus SW

13.1 C

15.6 C

15.6 C

16.0 C

0 W/m

0.00 mm

15:05

15.7 C

1005.5 hpa

84 %

12.9 km/h aus 106

24.1 km/h aus SSW

13.0 C

15.0 C

14.9 C

15.8 C

0 W/m

0.00 mm

15:10

15.5 C

1005.5 hpa

85 %

11.3 km/h aus 108

22.5 km/h aus SSW

13.0 C

15.1 C

15.1 C

15.6 C

0 W/m

0.00 mm

15:15

15.3 C

1005.5 hpa

86 %

9.7 km/h aus 111

19.3 km/h aus SSW

13.0 C

15.1 C

15.1 C

15.4 C

0 W/m

0.25 mm

15:20

15.2 C

1005.5 hpa

87 %

12.9 km/h aus 107

20.9 km/h aus SSW

13.0 C

14.3 C

14.3 C

15.2 C

0 W/m

0.00 mm

15:25

15.1 C

1005.5 hpa

88 %

12.9 km/h aus 109

19.3 km/h aus S

13.1 C

14.2 C

14.2 C

15.2 C

0 W/m

0.00 mm

15:30

15.0 C

1005.6 hpa

88 %

11.3 km/h aus 107

20.9 km/h aus SSW

13.0 C

14.5 C

14.4 C

15.1 C

0 W/m

0.00 mm

15:35

15.0 C

1005.6 hpa

89 %

11.3 km/h aus 108

24.1 km/h aus SSW

13.2 C

14.6 C

14.4 C

15.1 C

0 W/m

0.00 mm

15:40

15.1 C

1005.6 hpa

90 %

9.7 km/h aus 114

22.5 km/h aus SSW

13.5 C

14.9 C

14.8 C

15.2 C

0 W/m

0.00 mm

15:45

15.0 C

1005.5 hpa

90 %

16.1 km/h aus 109

33.8 km/h aus SSE

13.4 C

13.3 C

13.2 C

15.1 C

0 W/m

0.00 mm

15:50

15.0 C

1005.5 hpa

90 %

14.5 km/h aus 105

27.4 km/h aus SSW

13.4 C

13.7 C

13.6 C

15.1 C

0 W/m

0.25 mm

15:55

15.0 C

1005.5 hpa

90 %

17.7 km/h aus 112

37.0 km/h aus SSW

13.4 C

13.0 C

12.9 C

15.1 C

0 W/m

0.00 mm

16:00

15.0 C

1005.7 hpa

90 %

27.4 km/h aus 103

46.7 km/h aus SSW

13.4 C

11.7 C

11.6 C

15.1 C

0 W/m

0.00 mm

16:05

15.0 C

1005.7 hpa

90 %

24.1 km/h aus 109

37.0 km/h aus SSW

13.4 C

12.0 C

11.9 C

15.1 C

0 W/m

0.00 mm

16:10

14.7 C

1005.7 hpa

89 %

24.1 km/h aus 110

40.2 km/h aus SSW

12.9 C

11.7 C

11.6 C

14.8 C

0 W/m

0.00 mm

16:15

14.6 C

1005.9 hpa

90 %

19.3 km/h aus 107

35.4 km/h aus SW

12.9 C

12.1 C

12.1 C

14.6 C

0 W/m

0.00 mm

16:20

14.3 C

1005.9 hpa

90 %

14.5 km/h aus 106

27.4 km/h aus SW

12.7 C

12.9 C

12.8 C

14.4 C

0 W/m

0.00 mm

16:25

13.8 C

1005.9 hpa

89 %

14.5 km/h aus 105

33.8 km/h aus SW

12.1 C

12.3 C

12.2 C

13.9 C

0 W/m

0.00 mm

16:30

13.5 C

1006.0 hpa

89 %

14.5 km/h aus 104

30.6 km/h aus SW

11.7 C

11.9 C

11.8 C

13.6 C

0 W/m

0.00 mm

16:35

13.4 C

1006.0 hpa

89 %

12.9 km/h aus 1

27.4 km/h aus SW

11.7 C

12.2 C

12.2 C

13.5 C

0 W/m

2.54 mm

16:40

13.4 C

1006.0 hpa

89 %

14.5 km/h aus 109

37.0 km/h aus SW

11.6 C

11.8 C

11.7 C

13.4 C

0 W/m

0.25 mm

16:45

13.4 C

1006.0 hpa

90 %

12.9 km/h aus 104

24.1 km/h aus WSW

11.8 C

12.2 C

12.2 C

13.5 C

0 W/m

0.25 mm

16:50

13.4 C

1006.0 hpa

90 %

12.9 km/h aus 104

27.4 km/h aus WSW

11.8 C

12.2 C

12.2 C

13.5 C

0 W/m

0.00 mm

16:55

13.4 C

1006.0 hpa

90 %

17.7 km/h aus 105

32.2 km/h aus WSW

11.8 C

11.1 C

11.1 C

13.5 C

0 W/m

0.00 mm

17:00

13.3 C

1006.0 hpa

90 %

14.5 km/h aus 106

27.4 km/h aus SSW

11.7 C

11.7 C

11.7 C

13.4 C

0 W/m

0.25 mm

17:05

13.3 C

1006.0 hpa

90 %

14.5 km/h aus 102

24.1 km/h aus WSW

11.7 C

11.7 C

11.7 C

13.4 C

0 W/m

0.25 mm

17:10

13.4 C

1006.0 hpa

90 %

11.3 km/h aus 109

25.7 km/h aus SW

11.8 C

12.6 C

12.5 C

13.4 C

0 W/m

0.00 mm

17:15

13.4 C

1005.9 hpa

90 %

11.3 km/h aus 106

24.1 km/h aus SW

11.8 C

12.6 C

12.6 C

13.5 C

0 W/m

0.00 mm

17:20

13.4 C

1005.9 hpa

90 %

12.9 km/h aus 112

20.9 km/h aus WSW

11.8 C

12.2 C

12.2 C

13.5 C

0 W/m

0.25 mm

17:25

13.5 C

1005.9 hpa

91 %

11.3 km/h aus 109

20.9 km/h aus S

12.1 C

12.7 C

12.7 C

13.6 C

0 W/m

0.00 mm

17:30

13.5 C

1005.5 hpa

91 %

14.5 km/h aus 108

25.7 km/h aus S

12.1 C

11.9 C

11.8 C

13.6 C

0 W/m

0.25 mm

17:35

13.3 C

1005.5 hpa

91 %

16.1 km/h aus 109

29.0 km/h aus SW

11.9 C

11.3 C

11.3 C

13.4 C

0 W/m

0.00 mm

17:40

13.1 C

1005.5 hpa

90 %

17.7 km/h aus 106

33.8 km/h aus SW

11.5 C

10.8 C

10.7 C

13.2 C

0 W/m

0.00 mm

17:45

13.1 C

1005.5 hpa

91 %

11.3 km/h aus 105

22.5 km/h aus SSW

11.7 C

12.2 C

12.2 C

13.2 C

0 W/m

0.25 mm

17:50

13.1 C

1005.5 hpa

91 %

12.9 km/h aus 111

22.5 km/h aus SW

11.7 C

11.8 C

11.8 C

13.2 C

0 W/m

0.00 mm

17:55

13.2 C

1005.5 hpa

91 %

14.5 km/h aus 110

25.7 km/h aus SW

11.7 C

11.5 C

11.4 C

13.2 C

0 W/m

0.00 mm

18:00

13.2 C

1004.9 hpa

91 %

12.9 km/h aus 108

25.7 km/h aus SW

11.8 C

12.0 C

11.9 C

13.3 C

0 W/m

0.00 mm

18:05

13.3 C

1004.9 hpa

91 %

16.1 km/h aus 108

25.7 km/h aus S

11.8 C

11.3 C

11.2 C

13.3 C

0 W/m

0.25 mm

18:10

13.3 C

1004.9 hpa

92 %

14.5 km/h aus 111

30.6 km/h aus S

12.1 C

11.7 C

11.7 C

13.4 C

0 W/m

0.00 mm

18:15

13.3 C

1004.4 hpa

92 %

19.3 km/h aus 106

35.4 km/h aus SSE

12.1 C

10.7 C

10.7 C

13.4 C

0 W/m

0.00 mm

18:20

13.4 C

1004.4 hpa

92 %

17.7 km/h aus 105

30.6 km/h aus S

12.2 C

11.1 C

11.1 C

13.5 C

0 W/m

0.00 mm

18:25

13.5 C

1004.4 hpa

92 %

17.7 km/h aus 108

33.8 km/h aus S

12.2 C

11.2 C

11.2 C

13.6 C

0 W/m

0.00 mm

18:30

13.6 C

1004.4 hpa

92 %

17.7 km/h aus 106

30.6 km/h aus S

12.3 C

11.3 C

11.3 C

13.7 C

0 W/m

0.00 mm

18:35

13.7 C

1004.4 hpa

92 %

19.3 km/h aus 107

33.8 km/h aus S

12.4 C

11.2 C

11.1 C

13.8 C

0 W/m

0.00 mm

18:40

13.7 C

1004.4 hpa

92 %

24.1 km/h aus 106

40.2 km/h aus S

12.4 C

10.5 C

10.4 C

13.8 C

0 W/m

0.00 mm

18:45

13.8 C

1004.0 hpa

92 %

19.3 km/h aus 107

33.8 km/h aus SW

12.5 C

11.2 C

11.2 C

13.8 C

0 W/m

0.00 mm

18:50

13.9 C

1004.0 hpa

91 %

25.7 km/h aus 109

38.6 km/h aus SSW

12.4 C

10.5 C

10.4 C

13.9 C

0 W/m

0.00 mm

18:55

14.4 C

1004.0 hpa

91 %

25.7 km/h aus 105

41.8 km/h aus SW

12.9 C

11.1 C

11.1 C

14.4 C

0 W/m

0.00 mm

19:00

14.7 C

1003.9 hpa

90 %

22.5 km/h aus 103

38.6 km/h aus S

13.0 C

11.8 C

11.7 C

14.7 C

0 W/m

0.00 mm

19:05

14.7 C

1003.9 hpa

89 %

29.0 km/h aus 109

53.1 km/h aus SSW

12.9 C

11.2 C

11.1 C

14.8 C

0 W/m

0.00 mm

19:10

14.7 C

1003.9 hpa

88 %

30.6 km/h aus 108

53.1 km/h aus SSW

12.7 C

10.9 C

10.9 C

14.7 C

0 W/m

0.00 mm

19:15

14.6 C

1003.9 hpa

87 %

30.6 km/h aus 106

53.1 km/h aus SSW

12.4 C

10.8 C

10.8 C

14.6 C

0 W/m

0.00 mm

19:20

14.6 C

1003.9 hpa

87 %

25.7 km/h aus 111

53.1 km/h aus S

12.5 C

11.3 C

11.3 C

14.6 C

0 W/m

0.00 mm

19:25

14.7 C

1003.9 hpa

86 %

29.0 km/h aus 106

49.9 km/h aus SSW

12.3 C

11.0 C

11.0 C

14.7 C

0 W/m

0.00 mm

19:30

14.8 C

1003.9 hpa

86 %

25.7 km/h aus 109

41.8 km/h aus S

12.5 C

11.6 C

11.6 C

14.8 C

0 W/m

0.00 mm

19:35

14.8 C

1003.9 hpa

86 %

25.7 km/h aus 109

43.5 km/h aus SW

12.5 C

11.5 C

11.5 C

14.8 C

0 W/m

0.00 mm

19:40

14.8 C

1003.9 hpa

85 %

22.5 km/h aus 110

38.6 km/h aus SSW

12.3 C

11.8 C

11.8 C

14.8 C

0 W/m

0.00 mm

19:45

14.8 C

1003.8 hpa

85 %

17.7 km/h aus 100

35.4 km/h aus SSW

12.3 C

12.6 C

12.6 C

14.8 C

0 W/m

0.00 mm

19:50

14.8 C

1003.8 hpa

85 %

24.1 km/h aus 108

38.6 km/h aus SSW

12.3 C

11.7 C

11.7 C

14.8 C

0 W/m

0.00 mm

19:55

14.7 C

1003.8 hpa

86 %

22.5 km/h aus 109

41.8 km/h aus SSW

12.4 C

11.8 C

11.8 C

14.7 C

0 W/m

0.00 mm

20:00

14.8 C

1003.7 hpa

86 %

22.5 km/h aus 113

38.6 km/h aus SSW

12.5 C

11.8 C

11.8 C

14.8 C

0 W/m

0.00 mm

20:05

15.0 C

1003.7 hpa

85 %

20.9 km/h aus 108

38.6 km/h aus SSW

12.5 C

12.3 C

12.3 C

15.0 C

0 W/m

0.00 mm

20:10

15.0 C

1003.7 hpa

85 %

20.9 km/h aus 108

43.5 km/h aus SSW

12.5 C

12.3 C

12.3 C

15.0 C

0 W/m

0.00 mm

20:15

15.0 C

1003.8 hpa

84 %

25.7 km/h aus 108

43.5 km/h aus SW

12.3 C

11.7 C

11.7 C

15.0 C

0 W/m

0.00 mm

20:20

15.0 C

1003.8 hpa

84 %

22.5 km/h aus 100

40.2 km/h aus SW

12.3 C

12.1 C

12.1 C

15.0 C

0 W/m

0.00 mm

20:25

15.0 C

1003.8 hpa

83 %

22.5 km/h aus 101

38.6 km/h aus SSW

12.1 C

12.1 C

12.1 C

14.9 C

0 W/m

0.00 mm

20:30

15.0 C

1003.9 hpa

83 %

17.7 km/h aus 106

32.2 km/h aus SSW

12.1 C

12.8 C

12.9 C

14.9 C

0 W/m

0.00 mm

20:35

15.0 C

1003.9 hpa

82 %

20.9 km/h aus 109

43.5 km/h aus SW

12.0 C

12.2 C

12.3 C

14.9 C

0 W/m

0.00 mm

20:40

15.1 C

1003.9 hpa

82 %

22.5 km/h aus 98

38.6 km/h aus SSW

12.0 C

12.1 C

12.2 C

15.0 C

0 W/m

0.00 mm

20:45

15.0 C

1004.0 hpa

81 %

20.9 km/h aus 112

35.4 km/h aus SW

11.8 C

12.2 C

12.3 C

14.9 C

0 W/m

0.00 mm

20:50

15.0 C

1004.0 hpa

81 %

19.3 km/h aus 99

32.2 km/h aus SW

11.8 C

12.4 C

12.6 C

14.9 C

0 W/m

0.00 mm

20:55

15.0 C

1004.0 hpa

81 %

19.3 km/h aus 108

46.7 km/h aus SW

11.8 C

12.4 C

12.6 C

14.9 C

0 W/m

0.00 mm

21:00

15.0 C

1004.1 hpa

81 %

17.7 km/h aus 104

30.6 km/h aus WSW

11.8 C

12.8 C

12.9 C

14.9 C

0 W/m

0.00 mm

21:05

14.9 C

1004.1 hpa

82 %

17.7 km/h aus 111

30.6 km/h aus SW

11.9 C

12.8 C

12.8 C

14.9 C

0 W/m

0.00 mm

21:10

14.8 C

1004.1 hpa

82 %

14.5 km/h aus 106

33.8 km/h aus WSW

11.8 C

13.3 C

13.4 C

14.8 C

0 W/m

0.00 mm

21:15

14.8 C

1004.2 hpa

82 %

19.3 km/h aus 111

32.2 km/h aus SSW

11.8 C

12.3 C

12.4 C

14.8 C

0 W/m

0.00 mm

21:20

14.8 C

1004.2 hpa

82 %

16.1 km/h aus 108

32.2 km/h aus SSW

11.7 C

12.9 C

12.9 C

14.7 C

0 W/m

0.00 mm

21:25

14.7 C

1004.2 hpa

82 %

19.3 km/h aus 103

37.0 km/h aus WSW

11.7 C

12.2 C

12.3 C

14.7 C

0 W/m

0.00 mm

21:30

14.8 C

1004.4 hpa

81 %

19.3 km/h aus 98

37.0 km/h aus SW

11.5 C

12.2 C

12.3 C

14.7 C

0 W/m

0.00 mm

21:35

14.8 C

1004.4 hpa

81 %

12.9 km/h aus 108

30.6 km/h aus WSW

11.5 C

13.7 C

13.8 C

14.7 C

0 W/m

0.00 mm

21:40

14.8 C

1004.4 hpa

82 %

9.7 km/h aus 106

20.9 km/h aus SSW

11.7 C

14.3 C

14.4 C

14.7 C

0 W/m

0.00 mm

21:45

14.3 C

1005.4 hpa

83 %

17.7 km/h aus 102

27.4 km/h aus W

11.5 C

12.1 C

12.1 C

14.3 C

0 W/m

0.51 mm

21:50

13.8 C

1005.4 hpa

85 %

12.9 km/h aus 109

24.1 km/h aus WSW

11.4 C

12.6 C

12.7 C

13.8 C

0 W/m

0.25 mm

21:55

13.6 C

1005.4 hpa

87 %

12.9 km/h aus 103

25.7 km/h aus WSW

11.4 C

12.3 C

12.3 C

13.6 C

0 W/m

0.00 mm

22:00

13.3 C

1005.6 hpa

88 %

16.1 km/h aus 105

27.4 km/h aus WSW

11.4 C

11.3 C

11.3 C

13.3 C

0 W/m

0.00 mm

22:05

13.2 C

1005.6 hpa

89 %

16.1 km/h aus 104

32.2 km/h aus WSW

11.4 C

11.2 C

11.2 C

13.3 C

0 W/m

0.00 mm

22:10

13.1 C

1005.6 hpa

89 %

12.9 km/h aus 109

24.1 km/h aus W

11.3 C

11.8 C

11.8 C

13.2 C

0 W/m

0.00 mm

22:15

13.1 C

1006.0 hpa

90 %

12.9 km/h aus 110

24.1 km/h aus W

11.5 C

11.8 C

11.7 C

13.1 C

0 W/m

0.00 mm

22:20

13.0 C

1006.0 hpa

89 %

12.9 km/h aus 107

30.6 km/h aus WSW

11.2 C

11.7 C

11.7 C

13.1 C

0 W/m

0.00 mm

22:25

12.9 C

1006.0 hpa

89 %

14.5 km/h aus 101

25.7 km/h aus SW

11.2 C

11.3 C

11.2 C

13.0 C

0 W/m

0.00 mm

22:30

12.9 C

1006.0 hpa

89 %

14.5 km/h aus 105

25.7 km/h aus SW

11.2 C

11.3 C

11.2 C

13.0 C

0 W/m

0.00 mm

22:35

12.9 C

1006.0 hpa

89 %

16.1 km/h aus 107

35.4 km/h aus WSW

11.2 C

10.9 C

10.8 C

13.0 C

0 W/m

0.00 mm

22:40

12.9 C

1006.0 hpa

89 %

17.7 km/h aus 104

40.2 km/h aus WSW

11.2 C

10.6 C

10.5 C

13.0 C

0 W/m

0.00 mm

22:45

12.9 C

1006.4 hpa

88 %

14.5 km/h aus 104

30.6 km/h aus SW

11.0 C

11.2 C

11.2 C

12.9 C

0 W/m

0.00 mm

22:50

12.9 C

1006.4 hpa

88 %

11.3 km/h aus 101

24.1 km/h aus WSW

10.9 C

11.9 C

11.9 C

12.9 C

0 W/m

0.00 mm

22:55

12.8 C

1006.4 hpa

88 %

12.9 km/h aus 107

27.4 km/h aus SW

10.9 C

11.4 C

11.4 C

12.8 C

0 W/m

0.00 mm

23:00

12.7 C

1006.5 hpa

88 %

14.5 km/h aus 95

32.2 km/h aus SW

10.8 C

10.9 C

10.9 C

12.7 C

0 W/m

0.00 mm

23:05

12.6 C

1006.5 hpa

88 %

14.5 km/h aus 106

25.7 km/h aus W

10.7 C

10.8 C

10.8 C

12.6 C

0 W/m

0.00 mm

23:10

12.5 C

1006.5 hpa

88 %

14.5 km/h aus 103

25.7 km/h aus SW

10.6 C

10.7 C

10.7 C

12.5 C

0 W/m

0.00 mm

23:15

12.4 C

1006.7 hpa

88 %

12.9 km/h aus 103

25.7 km/h aus WSW

10.5 C

11.0 C

11.0 C

12.4 C

0 W/m

0.00 mm

23:20

12.4 C

1006.7 hpa

88 %

12.9 km/h aus 101

29.0 km/h aus SW

10.5 C

11.0 C

11.0 C

12.4 C

0 W/m

0.00 mm

23:25

12.4 C

1006.7 hpa

88 %

14.5 km/h aus 103

29.0 km/h aus W

10.5 C

10.6 C

10.6 C

12.4 C

0 W/m

0.00 mm

23:30

12.5 C

1007.1 hpa

88 %

12.9 km/h aus 103

24.1 km/h aus W

10.6 C

11.1 C

11.1 C

12.5 C

0 W/m

0.00 mm

23:35

12.5 C

1007.1 hpa

88 %

11.3 km/h aus 98

25.7 km/h aus W

10.6 C

11.4 C

11.4 C

12.5 C

0 W/m

0.00 mm

23:40

12.5 C

1007.1 hpa

87 %

14.5 km/h aus 98

30.6 km/h aus WSW

10.4 C

10.7 C

10.7 C

12.5 C

0 W/m

0.00 mm

23:45

12.5 C

1007.4 hpa

87 %

14.5 km/h aus 96

32.2 km/h aus SW

10.4 C

10.7 C

10.7 C

12.5 C

0 W/m

0.00 mm

23:50

12.4 C

1007.4 hpa

87 %

12.9 km/h aus 95

27.4 km/h aus SW

10.3 C

11.0 C

11.0 C

12.4 C

0 W/m

0.00 mm

23:55

12.3 C

1007.4 hpa

86 %

16.1 km/h aus 107

33.8 km/h aus SW

10.1 C

10.1 C

10.1 C

12.3 C

0 W/m

0.00 mm